Showing default

SPACEMOBILE-002, 61048

Orbit data source: Space-Track

SPACEMOBILE-002, 61048 is a payload satellite owned by AST & Science (US) in LEO that was launched on Thu, 12 Sep 2024 UTC via an FALCON 9 launch vehicle from the Air Force Eastern Test Range (AFETR). Payload-class satellites include a variety of spacecraft equipped with specific instruments for various scientific and technological missions. These include communications satellites like Starlink; space stations such as the ISS; scientific satellites like the Hubble; Earth observation satellites from companies like Planet Labs, Umbra, and HawkEye 360; GPS; miniature CubeSats for education and research; and military/defense satellites.

Loading next visibility...
Identifier
61048, 2024-163D
Orbit
LEO
Country
Flag of USUS
Related business
Manufacturer
AST & Science
Mission
Operational Commercial Communications
Bus & Motor
BW3, Unknown motor
Mass
1,500 kg wet, 1,500 kg dry
Launch date (UTC)
2024-09-12 (1 year ago)
Launch vehicle
FALCON 9
Launch site
Air Force Eastern Test Range (AFETR)
Object type
Payload
Rocket body
Debris
Shape & HBR
Box + 1 Plate, 4.5 m
Radar Cross Section
1.500 m², Large (>1 m²)

Expand to show TLE details & history
Last TLE update: 1 day ago

TLE from 1 day ago
0 SPACEMOBILE-002
1 61048U 24163D   25241.35758018  .00004374  00000-0  21161-3 0  9998
2 61048  52.9763 211.3739 0009868 338.3541  21.7035 15.20580032 53357
Epoch: 2025-08-29T08:34Z
TLE epoch observation values (Epoch: 2025-08-29T08:34:54.927Z)
Latitude
-0.00001°
Longitude
104.83765°
Altitude
498.657 km
Speed
7.62 km/s
True Right ascension
14h 05m 29s
True Declination
0° 00' 00"
Sunlit
Object was in daylight at epoch
Visualization orbit readout
Latitude
Unknown
Longitude
Unknown
Altitude
Unknown
Speed
Unknown
Apparent Right ascension
Unknown
Apparent Declination
Unknown
Sunlit
N/A
Visualization observer readout
Local Sidereal Time
02:48:47
Azimuth
Unknown
Elevation
Unknown
Doppler factor
Unknown
Orbital elements
Apogee altitude
511.167 km
Perigee altitude
497.583 km
Semi-major axis
6,882.512 km
Eccentricity
0.00099
Inclination
52.9763°
RAAN
211.3739°
Arg. of periapsis
338.3541°
True anomaly
21.74536°
Mean anomaly
21.7035°
Eccentric anomaly
21.72443°
Mean motion
3.80122 °/min
Orbital period
94.71 mins
BSTAR
0.00021161
Loading maneuver chart data...
Computing Atmospheric mass density...
Loading historical data...
Loading historical data...
Loading historical data...
Loading historical data...
Loading historical data...
Loading historical data...
Loading historical data...

Documentation

Showing up to 5 results
|